• MPC Preparation (Info)

  • MPEC 2020-C63 : 2020 BC15 = 2007 CP5

    The following Minor Planet Electronic Circular may be linked-to from your own Web pages, but must not otherwise be redistributed electronically.

    A form allowing access to any MPEC is at the bottom of this page.


    Read MPEC 2020-C62 Read MPEC 2020-C64


    M.P.E.C. 2020-C63                              Issued 2020 February 3, 21:39 UT
    
         The Minor Planet Electronic Circulars contain information on unusual
             minor planets and routine data on comets.  They are published
        on behalf of Division F of the International Astronomical Union by the
              Minor Planet Center, Smithsonian Astrophysical Observatory,
                              Cambridge, MA 02138, U.S.A.
    
                 Prepared using the Tamkin Foundation Computer Network
    
                                  MPC@CFA.HARVARD.EDU
                URL https://www.minorplanetcenter.net/    ISSN 1523-6714
    
                              2020 BC15 = 2007 CP5                           
    
    
    Orbital elements:
    2020 BC15 = 2007 CP5                                     Earth MOID = 0.1437 AU
    Epoch 2020 May 31.0 TT = JDT 2459000.5                  Manca
    M  40.57045              (2000.0)            P               Q
    n   0.45638161     Peri.   41.22339     -0.91461657     +0.08189360
    a   1.6707724      Node   137.89290     -0.05408413     -0.99525238
    e   0.3638966      Incl.   36.19256     +0.40068870     +0.05259416
    P   2.16           H   21.6           G   0.15           U   2
    Residuals in seconds of arc
    070207 703  0.1+  0.2+    070208 854  0.1+  0.7+    200122 F51  0.0   0.2-
    070207 703  0.3-  0.1+    070208 854  1.3+  0.5+    200130 F51  0.7-  0.2-
    070207 703  0.7-  0.3-    070208 854  0.7+  0.9+    200130 F51  0.1+  0.0
    070207 703  1.3-  0.8-    070208 F65  0.3+  0.9-    200130 F51  0.1+  0.3-
    070207 703  0.2-  0.0     070208 F65 (0.1+  2.0-)   200130 F51  0.1+  0.0
    070207 703  1.4-  0.2+    070211 B23 (0.1+  1.9+)   200131 807  0.1-  0.4-
    070207 703  0.5+  0.3-    070211 B23 (1.0+  4.8+)   200131 807  0.5-  0.1-
    070207 703  0.2+  0.2+    070211 B23 (0.7+  4.8+)   200131 807  0.7-  0.3-
    070208 G96  0.2-  0.3-    070211 B23 (0.9+  4.3+)   200131 568  0.0   0.0
    070208 703  0.2-  1.4+    070211 B23 (0.9+  2.8+)   200131 568  0.0   0.1+
    070208 G96  0.1+  0.1-    070217 673  0.0   0.4-    200131 568  0.0   0.0
    070208 703  0.4-  0.5-    070217 673  0.2+  0.1+    200131 Q63  0.4-  0.5+
    070208 703  0.4+  0.3-    070217 673  1.0-  0.1+    200131 Q63  0.3+  0.2+
    070208 703  0.7+  0.1+    070217 673  0.0   1.2+    200131 Q63  0.0   0.9+
    070208 G96  0.1-  0.5-    191230 F51  0.1+  0.1-    200201 H36  0.6+  0.6+
    070208 673  0.1+  0.1+    191230 F51  0.0   0.1-    200201 H36  0.8+  0.0
    070208 673  0.6+  0.3+    191230 F51  0.7+  0.4+    200201 I52  0.5-  0.1-
    070208 673  0.2+  0.2+    191230 F51  0.2+  0.2+    200201 I52  0.0   0.2-
    070208 673  0.3-  0.1+    200122 F51  0.0   0.3-    200201 I52  0.3+  0.4-
    
    Ephemeris:
    2020 BC15                a,e,i = 1.67, 0.36, 36                  q = 1.0628
    Date    TT    R. A. (2000) Decl.     Delta      r    Elong.  Phase     V
    2020 01 04    11 16 17.0 -19 27 43   0.5082  1.2086   103.6    52.2    22.5
    ...
    2020 01 19    12 30 25.4 -08 46 23   0.3660  1.1485   107.6    54.8    21.7
    ...
    2020 01 27    13 22 56.1 +01 46 43   0.3176  1.1217   107.5    56.9    21.4
    ...
    2020 02 02    14 08 06.3 +11 34 02   0.3015  1.1044   105.4    59.3    21.3
    2020 02 03    14 15 59.6 +13 15 13   0.3007  1.1017   104.9    59.8    21.3
    2020 02 04    14 23 57.2 +14 56 03   0.3005  1.0992   104.3    60.3    21.4
    ...
    2020 02 10    15 12 23.5 +24 26 33   0.3105  1.0856   100.2    63.4    21.5
    ...
    2020 02 18    16 14 29.2 +34 11 24   0.3485  1.0722    94.3    66.8    21.8
    ...
    2020 03 04    17 46 42.0 +43 30 51   0.4580  1.0628    86.0    68.5    22.4
    
    A. U. Tomatic                (C) Copyright 2020 MPC           M.P.E.C. 2020-C63
    


    Read MPEC 2020-C62 Read MPEC 2020-C64


    MPEC number:

    Enter an MPEC number in one of the following forms:

    • 1997-B01 (the full form)
    • J97B01 (the packed version of the full form)
    • B01 (the abbreviated form)